STARLINK-36539, 67446

Orbit data source: Space-Track

STARLINK-36539, 67446 is a payload satellite owned by SpaceX/Seattle (US) in LEO that was launched on Wed, 14 Jan 2026 UTC via an FALCON 9 launch vehicle from the Air Force Eastern Test Range (AFETR). Payload-class satellites include a variety of spacecraft equipped with specific instruments for various scientific and technological missions. These include communications satellites like Starlink; space stations such as the ISS; scientific satellites like the Hubble; Earth observation satellites from companies like Planet Labs, Umbra, and HawkEye 360; GPS; miniature CubeSats for education and research; and military/defense satellites.

Loading next visibility...
Identifier
67446, 2026-008B
Orbit
LEO
Country
Flag of USUS
Related business
Manufacturer
SpaceX/Seattle
Mission
Operational Commercial Communications
Bus & Motor
STARLINK V2MO, Unknown motor
Mass
575 kg wet, ~530 kg dry
Launch date (UTC)
2026-01-14 (5 months ago)
Launch vehicle
FALCON 9
Launch site
Air Force Eastern Test Range (AFETR)
Object type
Payload
Rocket body
Debris
Shape & HBR
Box + 2 Pan, 17.7 m
Radar Cross Section
36.964 m², Large (>1 m²)

Expand to show TLE details & history
Last TLE update: 9 hours ago

TLE from 9 hours ago
0 STARLINK-36539
1 67446U 26008B   26171.45618201  .00014236  00000-0  52563-3 0  9997
2 67446  43.0025 345.3251 0002265 266.8688  93.1905 15.27592794 25280
Epoch: 2026-06-20T10:56Z
TLE epoch observation values (Epoch: 2026-06-20T10:56:54.125Z)
Latitude
Longitude
-87.57096°
Altitude
482.873 km
Speed
7.626 km/s
True Right ascension
23h 01m 18s
True Declination
0° 00' 00"
Sunlit
Object was in daylight at epoch
Visualization orbit readout
Latitude
Unknown
Longitude
Unknown
Altitude
Unknown
Speed
Unknown
Apparent Right ascension
Unknown
Apparent Declination
Unknown
Sunlit
N/A
Visualization observer readout
Local Sidereal Time
07:18:55
Azimuth
Unknown
Elevation
Unknown
Doppler factor
Unknown
Orbital elements
Apogee altitude
486.51 km
Perigee altitude
483.401 km
Semi-major axis
6,863.093 km
Eccentricity
0.00023
Inclination
43.0025°
RAAN
345.3251°
Arg. of periapsis
266.8688°
True anomaly
93.21641°
Mean anomaly
93.1905°
Eccentric anomaly
93.20346°
Mean motion
3.81736 °/min
Orbital period
94.31 mins
BSTAR
0.00052563
Loading maneuver chart data...
Computing Atmospheric mass density...
Loading historical data...
Loading historical data...
Loading historical data...
Loading historical data...
Loading historical data...
Loading historical data...
Loading historical data...

Documentation

Showing up to 5 results
|